This is the latest recevied weather packets stored in our database for station/object N9EA. If no packets are shown the sender has not sent any weather packets the latest 10 day(s).
| Time | Temp. | Humidity | Pressure | Rain* | Wind** | Luminosity | Snow |
|---|---|---|---|---|---|---|---|
| 1777763706 | 16.67° C | 30% | 1016.3 hPa | 0 mm | - | 140 W/m² | - |
| 1777763404 | 16.11° C | 31% | 1016.1 hPa | 0 mm | - | 151 W/m² | - |
| 1777763102 | 16.67° C | 32% | 1016.2 hPa | 0 mm | - | 161 W/m² | - |
| 1777762800 | 17.22° C | 30% | 1016.2 hPa | 0 mm | - | 180 W/m² | - |
| 1777762495 | 17.22° C | 30% | 1016.2 hPa | 0 mm | - | 194 W/m² | - |
| 1777762193 | 16.11° C | 32% | 1016.2 hPa | 0 mm | - | 201 W/m² | - |
| 1777761889 | 16.67° C | 30% | 1016.5 hPa | 0 mm | - | 212 W/m² | - |
| 1777761586 | 16.67° C | 32% | 1016.4 hPa | 0 mm | - | 231 W/m² | - |
| 1777761284 | 16.11° C | 33% | 1016.1 hPa | 0 mm | - | 255 W/m² | - |
| 1777760982 | 15.56° C | 34% | 1016.2 hPa | 0 mm | - | 182 W/m² | - |
| 1777760679 | 15° C | 33% | 1016.2 hPa | 0 mm | - | 90 W/m² | - |
| 1777760374 | 15° C | 33% | 1016.3 hPa | 0 mm | - | 67 W/m² | - |
| 1777760071 | 15° C | 33% | 1016.3 hPa | 0 mm | - | 80 W/m² | - |
| 1777759768 | 15° C | 32% | 1016.4 hPa | 0 mm | - | 89 W/m² | - |
| 1777759464 | 15° C | 33% | 1016.5 hPa | 0 mm | - | 95 W/m² | - |
| 1777759160 | 15° C | 33% | 1016.7 hPa | 0 mm | - | 88 W/m² | - |
| 1777758858 | 15.56° C | 31% | 1016.7 hPa | 0 mm | - | 82 W/m² | - |
| 1777758554 | 15.56° C | 33% | 1016.7 hPa | 0 mm | - | 98 W/m² | - |
| 1777758251 | 15.56° C | 30% | 1016.8 hPa | 0 mm | - | 123 W/m² | - |
| 1777757949 | 16.11° C | 32% | 1016.7 hPa | 0 mm | - | 229 W/m² | - |
| 1777757645 | 15.56° C | 31% | 1016.8 hPa | 0 mm | - | 449 W/m² | - |
| 1777757344 | 15° C | 33% | 1016.8 hPa | 0 mm | - | 473 W/m² | - |
| 1777757043 | 15° C | 32% | 1016.9 hPa | 0 mm | - | 139 W/m² | - |
| 1777756739 | 16.11° C | 31% | 1016.8 hPa | 0 mm | - | 152 W/m² | - |
| 1777756440 | 15.56° C | 33% | 1017 hPa | 0 mm | - | 561 W/m² | - |
* Rain latest hour (hover to see other rain measurements)
** Current wind speed in m/s (hover to see current wind gust speed)